Regional Weather Roundup
Issued by NWS

Home | Current Version | Previous Version | Graphics & Text | Print | Product List | Glossary On
Versions: 1 2 3 4 5 6 7 8 9 10 11 12 13 14 15 16 17 18 19 20 21 22 23 24 25 26 27 28 29 30 31 32 33 34 35 36 37 38 39 40 41 42 43 44 45 46 47 48 49 50
768
ASUS45 KBOU 011310
RWRCO

WEATHER ROUNDUP FOR COLORADO
NATIONAL WEATHER SERVICE DENVER/BOULDER CO
700 AM MDT SAT OCT 01 2016

NOTE: "FAIR" INDICATES FEW OR NO CLOUDS BELOW 12000 FEET WITH NO
SIGNIFICANT WEATHER AND/OR OBSTRUCTIONS TO VISIBILITY.

COZ001>005-013-030-031-011400-
...NORTHWEST COLORADO...

CITY           SKY/WX    TMP DP  RH WIND       PRES   REMARKS
CRAIG          FAIR      39  36  89 CALM      30.26R
HAYDEN         FAIR      43  36  75 E9        30.27R
MEEKER         FAIR      40  38  93 CALM      30.27R
MOUNT WERNER   NOT AVBL
STEAMBOAT SPGS FAIR      38  37  98 CALM      30.29R
WALDEN           N/A     32  30  93 CALM      30.35S
$$

COZ006>008-011-011400-
...WEST CENTRAL VALLEYS...

CITY           SKY/WX    TMP DP  RH WIND       PRES   REMARKS
GRAND JUNCTION FAIR      50  46  86 E6        30.20R
MONTROSE       FAIR      45  39  79 SE8       30.27R
EAGLE          FAIR      36  36 100 E3        30.34R
RIFLE          FAIR      43  42  97 E5        30.25S
DELTA          FAIR      46  42  88 CALM      30.24S
NUCLA          FAIR      43  39  87 SE5       30.30R
$$

COZ017>023-064>068-011400-
...SOUTHWEST COLORADO...

CITY           SKY/WX    TMP DP  RH WIND       PRES   REMARKS
DURANGO        FAIR      38  36  92 N6        30.29S
CORTEZ         FAIR      40  38  93 CALM      30.26R
PAGOSA SPRINGS FAIR      38  37  97 CALM      30.34S
TELLURIDE      FAIR      39  36  88 SE6       30.41S
WOLF CREEK PAS FOG       32  32 100 MISG      30.54S VSB 1/2
$$

COZ009-010-012-014-032>034-037-058>063-011400-
...CENTRAL COLORADO...

CITY           SKY/WX    TMP DP  RH WIND       PRES   REMARKS
ASPEN          FAIR      36  34  92 SW3       30.33R
BUENA VISTA    FAIR      38  35  87 CALM      30.34R
COPPER MTN     FAIR      41  32  70 CALM      30.51S
BERTHOUD PASS  FAIR      32  21  64 N10       30.53S WCI  24
COTTONWOOD PAS FAIR      46  41  81 SE3       30.41R
GUNNISON       FAIR      34  32  92 N3        30.37S
KREMMLING      FOG       36  34  93 CALM      30.36S VSB 3/4
LEADVILLE      MOCLDY    30  28  92 CALM      30.41R
SALIDA         FAIR      45  40  83 W5        30.39S
SUNLIGHT       FAIR      43  37  81 SW3       30.49R
WILKERSON PASS FAIR      43  32  65 CALM      30.50S
$$

COZ069>075-011400-
...SAN LUIS VALLEY/SANGRE DE CRISTO MOUNTAINS...

CITY           SKY/WX    TMP DP  RH WIND       PRES   REMARKS
ALAMOSA        FAIR      36  34  92 CALM      30.32R
LA VETA PASS   FAIR      39  36  87 MISG      30.40S
SAGUACHE       NOT AVBL
$$

COZ035-036-038>040-011400-
...NORTHERN COLORADO FRONT RANGE...

CITY           SKY/WX    TMP DP  RH WIND       PRES   REMARKS
DENVER INTL AP FAIR      51  42  71 SW8       30.15S
DMNS CITY PARK   N/A     52  43  71 SE6       30.15S
AURORA         PTCLDY    50  44  79 S6        30.17R
FRONT RANGE AP NOT AVBL
ERIE MUNI ARPT FAIR      44  40  85 CALM      30.14S
BOULDER MUN AP FAIR      52  41  66 CALM      30.14S
CENTENNIAL     FAIR      49  41  74 E6        30.17F
BROOMFIELD     PTCLDY    55  37  50 CALM      30.16S
FORT COLLINS   MOCLDY    52  46  82 CALM      30.14S
LONGMONT       FAIR      46  41  83 W3        30.15S
$$

COZ041-046-047-076>085-087-088-011400-
...PIKES PEAK/PALMER DIVIDE AND SOUTHERN FOOTHILLS...

CITY           SKY/WX    TMP DP  RH WIND       PRES   REMARKS
COLO. SPRINGS  FAIR      55  42  61 NW3       30.20S
A. F. ACADEMY  FAIR      45  43  93 N12       30.21S
SCHRIEVER AFB  NOT AVBL
ELLICOTT       NOT AVBL
FALCON         FAIR      54  39  56 NW7       30.23S
FORT CARSON    FAIR      49  43  80 NW7       30.17R
LIMON          FAIR      45  40  82 W6        30.16S
MONUMENT HILL  FAIR      45  37  76 W8        30.25S
TRINIDAD       FAIR      48  42  80 W10       30.18R
$$

COZ042>045-048>051-090-091-011400-
...NORTHEAST COLORADO...

CITY           SKY/WX    TMP DP  RH WIND       PRES   REMARKS
GREELEY ARPT   FAIR      45  41  87 CALM      30.13S
AKRON          FAIR      47  43  86 S7        30.12S
BURLINGTON     FAIR      48  43  82 CALM      30.13R
WRAY           NOT AVBL
STERLING       FAIR      43  41  93 W3        30.10R
HOLYOKE        FAIR      45  41  87 S5        30.11S
FORT MORGAN    FAIR      44  41  89 SW5       30.13R
$$

COZ086-089-092>099-011400-
...SOUTHEAST COLORADO...

CITY           SKY/WX    TMP DP  RH WIND       PRES   REMARKS
PUEBLO         FAIR      51  43  74 CALM      30.12S
LA JUNTA       FAIR      55  47  74 CALM      30.11S
LAMAR          FAIR      50  45  83 CALM      30.09R
SPRINGFIELD      N/A     57  50  77 SW5       30.10S
$$




USA.gov is the U.S. government's official web portal to all federal, state and local government web resources and services.